Theta_e
345 346 346 346 347 350 352 353 351 349 349 350 351 351 350 352 353 352 352 352 352 352 352 353 353 353 353 353 353 353 353 354 353 352 351 348 346 346 348 349 350 350 350 349 349 349 348 349 351 352 352 352 352 351 348 345 343 344 347 350 351 351 352
343 344 345 345 345 348 350 352 353 352 350 349 350 351 350 351 352 352 352 352 352 352 352 352 353 354 353 353 354 354 354 354 353 353 353 351 348 347 347 349 350 351 350 349 349 349 348 348 349 350 351 351 351 352 350 348 347 346 347 350 351 352 352
341 342 344 344 344 346 348 352 352 352 352 350 350 351 351 350 351 352 352 352 352 352 351 352 353 354 354 354 354 355 354 355 354 354 353 352 350 348 346 349 352 353 352 351 351 351 348 348 349 349 349 351 351 351 351 351 351 349 348 350 351 351 351
340 342 343 343 344 345 346 350 352 352 353 352 350 350 350 351 351 352 352 353 353 353 352 352 353 353 354 354 354 355 355 355 354 354 353 354 352 348 348 350 353 354 353 353 352 351 348 349 350 350 350 351 351 350 351 351 352 352 351 351 351 351 350
340 342 342 342 342 344 345 347 351 352 353 353 353 350 350 350 351 352 352 352 353 352 352 352 353 354 354 353 354 354 354 355 354 352 352 353 352 348 347 350 354 355 353 353 352 349 348 350 351 351 351 351 351 351 351 351 351 352 352 353 353 352 347
342 343 344 343 342 343 344 345 348 352 353 353 354 352 351 351 352 352 352 352 352 351 351 351 353 354 354 353 354 354 354 353 352 351 351 352 350 347 346 348 352 354 353 352 352 352 351 351 351 351 351 351 352 351 351 351 351 352 352 353 354 353 350
344 345 345 345 344 343 344 344 346 349 351 353 353 352 351 350 351 351 350 350 352 351 351 351 353 354 355 354 354 354 354 351 349 350 351 351 350 347 345 346 349 351 352 352 353 354 354 352 350 350 351 352 352 352 352 352 351 351 352 352 353 353 353
344 344 345 346 346 345 345 344 345 348 350 352 353 353 351 351 351 351 349 349 350 350 351 351 352 353 354 354 353 352 352 350 349 349 349 350 350 348 347 346 347 348 350 352 353 354 354 352 350 349 350 351 351 351 351 352 352 351 352 352 353 353 353
343 343 345 346 346 346 346 346 348 349 350 350 352 354 353 353 352 351 350 349 348 348 349 350 351 351 352 351 351 350 351 349 348 348 349 349 349 348 348 349 350 351 352 353 353 353 352 351 350 349 349 349 349 349 350 351 351 352 352 352 352 353 353
343 343 345 346 347 346 345 347 349 350 351 349 350 353 353 354 353 351 351 350 349 349 349 350 351 351 351 350 349 351 350 349 347 347 348 348 348 348 348 352 353 354 354 354 352 351 351 350 350 349 349 349 349 349 349 351 352 351 352 353 353 353 353
343 343 345 346 347 347 346 348 350 350 351 350 349 352 353 354 353 352 352 351 351 351 351 351 351 350 350 350 350 351 351 349 348 348 347 348 349 350 351 353 354 354 354 353 351 351 353 351 349 349 349 349 349 349 349 351 351 350 352 352 353 353 353
342 343 345 345 346 347 347 348 349 349 350 349 349 350 352 353 354 353 352 352 351 352 351 351 351 351 351 350 350 351 352 351 350 349 349 348 350 352 354 355 355 353 352 351 350 350 350 349 348 349 349 349 349 349 349 349 350 350 352 351 351 352 351
341 343 345 344 345 346 346 348 349 350 350 349 349 351 350 351 352 352 351 350 350 352 351 350 350 351 351 350 351 352 353 352 352 352 351 351 351 353 355 356 356 354 352 350 350 349 349 348 349 349 350 350 349 349 349 349 350 351 351 351 351 351 351
340 343 344 345 345 345 347 348 348 350 351 350 349 350 350 351 352 352 351 350 351 352 351 350 350 351 351 351 350 351 352 353 353 354 354 353 354 354 356 357 356 355 354 352 350 348 348 348 348 349 351 351 350 350 351 351 352 351 350 350 350 350 350
339 342 343 344 346 346 347 348 348 349 350 350 349 348 349 350 352 352 352 353 353 352 352 351 351 351 352 350 351 351 351 353 354 355 355 356 355 355 355 355 355 355 354 354 353 350 348 347 347 349 350 352 352 352 352 353 352 351 349 349 348 348 348
339 341 342 342 345 347 347 348 349 349 349 350 350 349 348 348 349 350 352 355 355 352 352 352 350 351 351 350 351 351 350 353 355 357 358 357 356 355 354 354 353 353 353 355 355 353 349 349 348 349 350 351 351 352 353 352 352 350 350 349 349 348 348
339 341 341 341 343 347 348 348 348 348 348 350 350 351 350 348 347 349 352 355 355 354 354 353 350 351 352 351 350 349 351 355 357 358 359 357 354 351 352 353 353 353 354 355 355 353 351 349 349 349 349 350 350 353 354 351 350 350 349 350 350 349 349
341 342 342 341 343 347 348 348 348 348 349 349 349 350 352 352 350 348 348 349 349 351 353 353 352 353 354 353 351 351 354 356 356 356 355 354 350 348 349 352 353 354 356 357 356 353 351 349 349 350 351 351 352 353 352 349 349 350 351 350 349 348 349
341 341 342 341 342 345 346 345 347 348 348 349 350 349 350 353 352 349 347 345 344 343 344 349 353 353 354 354 354 355 357 356 353 351 349 346 347 348 350 351 351 353 355 356 354 353 352 351 350 350 351 352 352 350 348 349 350 350 349 348 348 348 349
340 340 341 341 340 342 343 344 347 349 349 350 350 349 351 352 352 351 349 346 345 342 343 347 351 350 351 354 355 355 355 352 349 346 343 343 346 348 349 349 349 351 354 354 353 352 352 351 349 349 351 352 351 349 348 350 350 349 348 347 347 348 348
339 340 340 340 340 341 341 344 348 348 348 350 351 351 351 351 352 352 352 351 349 346 347 350 351 350 351 353 354 351 348 348 347 345 344 344 346 346 347 347 348 350 351 352 352 352 351 349 348 349 351 351 350 349 350 350 349 348 346 345 345 346 346
339 339 340 340 339 339 341 345 348 348 348 350 351 351 350 350 351 352 353 354 353 351 351 352 353 353 352 353 352 349 346 346 348 348 345 345 346 347 347 347 348 348 349 349 350 350 349 349 349 350 350 351 351 350 350 349 347 346 344 343 343 344 345
338 338 340 340 339 339 342 346 348 349 349 349 350 351 351 351 352 353 353 353 353 354 354 354 354 354 353 354 353 349 346 347 349 350 349 348 349 349 348 348 346 345 346 347 347 348 348 349 351 351 352 352 351 349 349 347 344 343 343 343 343 344 344
338 338 338 339 339 341 343 346 347 348 349 348 348 350 351 351 351 352 353 352 352 352 353 354 356 355 355 355 352 348 347 347 349 350 349 349 349 349 348 347 345 344 345 347 348 349 350 351 351 351 352 351 349 349 348 345 343 343 343 343 343 344 343
338 338 337 339 341 342 343 345 344 345 348 348 348 348 349 349 351 351 353 353 352 351 352 354 355 356 356 355 352 351 349 347 346 347 347 349 350 350 349 347 345 345 347 348 350 352 352 352 352 351 351 349 349 349 348 345 343 343 343 344 344 344 343
338 338 338 339 342 343 344 343 341 342 346 346 346 346 345 345 348 349 351 353 352 352 353 353 354 355 354 353 353 351 349 346 346 346 346 348 348 349 350 349 347 347 347 349 352 354 354 353 352 351 349 349 349 349 346 344 343 343 344 345 344 344 343
338 339 338 339 342 344 345 343 339 340 345 346 346 345 343 343 346 348 350 351 351 352 353 354 355 354 351 350 350 350 349 348 347 348 348 348 346 347 349 349 349 349 349 351 353 353 353 352 351 350 349 348 348 346 344 343 343 343 343 344 343 343 343
339 339 338 340 342 344 344 342 339 342 346 347 348 346 344 344 345 347 349 350 350 351 351 353 355 355 352 351 350 351 351 349 347 348 348 345 344 344 346 348 350 351 351 352 353 352 351 350 349 349 349 347 345 343 342 341 340 339 340 342 343 344 344
339 339 340 341 342 343 344 343 343 345 346 347 346 346 345 344 344 344 347 349 350 350 351 353 353 353 354 353 352 351 350 348 348 349 347 341 340 342 346 348 350 351 352 352 352 350 349 349 349 349 348 346 343 341 339 338 338 339 341 343 343 341 339
338 339 340 340 341 343 343 343 344 345 345 345 344 343 342 341 338 336 339 344 347 348 351 353 353 354 353 353 352 352 351 351 352 351 346 342 342 346 349 350 351 350 351 351 350 349 348 348 348 348 347 343 340 338 337 338 338 339 340 340 339 337 337
337 339 339 339 341 342 341 342 343 342 342 343 342 340 340 340 339 338 339 344 346 348 351 352 353 353 353 352 352 352 352 352 351 348 344 342 346 350 351 351 350 350 350 349 349 348 347 348 348 347 344 341 338 337 337 338 338 338 338 338 338 338 338
337 340 340 339 340 340 340 341 341 339 340 341 340 340 341 342 343 344 344 346 347 348 350 351 351 351 352 352 352 351 349 347 347 345 341 341 346 351 352 351 350 349 349 349 348 346 347 348 347 345 341 339 338 338 338 338 338 339 339 340 339 339 338
338 339 340 339 338 339 340 341 339 339 341 342 341 341 342 343 345 347 347 347 347 347 348 349 350 350 350 351 351 348 344 344 345 344 341 343 349 351 352 352 351 350 349 348 347 346 347 348 346 343 340 339 338 338 338 339 340 341 341 341 339 338 338
338 338 339 339 339 340 341 341 339 340 342 342 342 343 343 344 347 348 348 348 349 349 349 349 350 350 349 350 350 349 347 347 347 344 342 347 351 352 352 351 350 350 349 347 346 346 347 347 345 342 340 339 339 339 340 340 341 341 340 339 338 337 336
337 338 338 339 340 340 340 339 338 340 342 344 345 344 345 346 346 348 348 349 350 350 350 350 350 350 349 349 351 352 352 351 348 344 342 346 350 352 352 351 350 349 348 347 347 347 346 346 345 342 340 341 341 341 342 342 341 340 339 337 336 334 333
337 337 338 339 340 340 339 336 337 340 342 345 346 347 347 347 346 348 350 350 350 351 350 351 350 350 349 349 350 352 353 352 351 347 345 346 349 350 350 350 350 349 348 347 347 347 346 345 344 343 342 342 343 343 342 340 339 337 336 334 333 330 329
338 338 338 339 340 339 336 334 337 339 341 344 345 347 347 346 346 349 350 350 351 351 350 351 351 349 348 349 350 351 351 350 350 349 347 347 348 348 348 348 349 349 347 347 347 347 346 345 345 344 344 344 343 342 340 338 336 335 333 332 330 327 323
338 338 337 339 339 337 333 334 338 339 340 343 344 346 347 346 346 348 349 349 349 350 350 350 351 349 347 348 350 351 350 349 349 348 348 349 349 347 346 346 346 347 347 347 347 346 346 345 345 345 344 342 340 339 338 336 334 332 331 330 325 319 316
Wind_Speed
24 22 21 17 10 5 14 21 25 24 24 26 29 33 36 35 31 28 31 34 34 33 33 32 31 31 32 31 30 29 28 27 27 26 26 28 28 28 28 28 27 26 27 27 25 23 21 20 19 17 14 11 10 9 10 10 12 14 13 12 11 12 12
25 24 23 21 17 10 6 14 24 27 25 25 27 31 35 37 35 32 31 32 33 33 34 34 33 33 33 32 31 30 29 28 27 27 27 28 29 28 27 27 25 23 24 26 25 23 21 18 17 16 15 13 10 9 10 9 10 13 13 12 12 13 14
25 25 24 22 21 17 11 8 18 27 28 26 26 30 34 37 38 36 33 32 33 33 34 35 35 34 34 32 31 30 29 28 27 27 27 27 29 29 27 27 25 23 23 23 24 24 21 15 13 13 13 13 10 8 9 9 10 11 11 12 13 14 16
24 24 23 21 21 20 15 10 11 23 31 31 28 28 31 35 37 38 35 32 33 34 33 34 36 35 34 32 31 30 29 28 28 27 27 27 27 28 27 27 25 22 23 23 22 23 20 15 13 12 12 12 11 9 9 9 10 11 11 11 12 14 17
22 22 23 22 21 20 17 13 10 14 25 33 32 28 30 33 36 37 34 31 33 34 33 35 37 35 34 32 31 30 29 28 27 27 27 26 25 26 28 29 27 25 24 22 18 19 17 15 15 14 13 13 13 12 10 10 11 10 11 11 12 13 14
21 22 23 22 20 18 16 14 12 10 15 27 32 29 29 33 35 34 32 30 33 33 32 34 36 35 34 32 31 30 28 26 26 26 27 26 25 26 28 30 30 28 26 22 18 18 18 17 16 15 14 14 14 14 13 12 12 11 10 11 11 12 12
19 22 23 23 19 16 15 14 12 10 11 18 25 26 27 30 33 33 31 31 33 33 31 32 35 34 33 32 31 30 28 26 26 26 26 26 26 26 27 29 29 29 28 24 20 19 20 20 19 17 16 15 15 16 15 15 14 12 11 11 12 12 11
18 21 22 22 19 15 14 13 11 10 10 13 20 23 24 27 30 31 31 32 33 32 31 32 33 34 33 32 31 30 28 26 26 26 26 25 26 26 26 26 27 28 28 25 23 22 21 20 20 19 18 18 17 16 16 16 16 14 13 12 13 13 13
17 20 21 21 18 15 14 12 9 8 9 12 18 23 25 26 27 28 29 32 34 34 32 32 33 33 33 32 31 30 28 26 26 26 26 26 25 25 24 24 24 24 25 25 25 24 22 20 20 21 20 19 19 18 16 16 15 15 15 15 15 15 15
17 19 20 20 18 14 14 11 7 5 8 12 16 22 26 28 28 27 27 30 33 34 32 32 33 34 33 31 30 30 29 27 26 26 26 26 25 25 23 22 22 24 25 27 24 21 22 21 18 20 22 22 21 19 17 16 16 16 16 17 16 17 18
18 18 19 20 19 15 12 11 8 4 6 10 14 19 24 27 29 28 27 29 31 32 32 31 32 33 32 31 30 30 31 29 28 27 26 26 25 24 21 20 25 26 23 22 20 17 22 23 17 17 21 24 23 20 18 18 17 18 18 19 18 18 19
18 18 19 20 20 18 14 11 10 6 5 8 12 16 19 23 26 28 28 28 29 30 31 31 33 33 31 31 31 31 32 31 29 28 26 26 25 23 22 24 29 26 18 18 19 16 20 24 21 16 18 22 24 21 20 20 20 20 21 20 19 18 17
19 17 18 19 20 21 19 14 10 9 8 9 10 13 17 21 25 28 28 27 26 28 30 30 34 35 33 31 32 32 32 31 30 28 26 26 25 25 26 28 30 25 20 20 21 18 18 20 21 19 17 19 22 21 20 21 22 21 20 18 18 17 17
20 18 18 19 20 21 22 19 14 11 10 10 10 13 17 22 25 26 26 26 27 28 28 27 32 37 37 32 32 33 32 31 29 27 26 27 26 27 28 28 27 24 22 23 21 18 17 16 19 22 20 19 19 19 20 20 20 18 16 16 16 16 16
22 20 20 22 22 22 23 23 21 16 11 12 12 13 17 21 24 24 24 26 26 26 26 26 29 37 39 35 33 33 30 29 29 27 25 26 26 27 27 27 26 25 25 24 21 17 16 15 17 20 22 22 20 20 19 18 16 15 14 14 14 14 14
22 22 23 25 25 24 23 23 24 22 15 13 14 13 14 18 21 24 26 28 27 25 26 27 30 36 40 38 34 31 28 29 30 27 26 26 25 25 26 26 26 26 26 24 20 18 17 16 17 19 21 23 23 22 20 16 15 15 14 13 13 13 13
22 23 25 27 25 23 23 23 24 26 21 15 17 15 13 14 18 21 23 25 25 25 26 27 30 36 40 38 33 30 30 31 28 23 22 23 23 22 24 25 25 25 24 21 19 19 19 18 19 20 19 21 22 22 19 17 16 15 13 12 12 11 11
21 22 24 26 24 22 23 25 26 27 24 17 17 17 13 12 13 12 12 14 18 20 23 26 30 34 37 36 32 30 28 24 17 13 13 17 19 20 23 24 24 23 23 22 22 22 20 19 20 19 19 20 21 19 18 16 15 13 12 11 11 10 9
20 21 22 24 23 21 24 28 27 25 23 19 17 16 13 12 11 11 12 13 15 17 18 23 30 32 32 30 26 22 18 13 9 8 12 16 17 19 21 23 23 24 24 24 24 22 19 18 18 18 19 20 19 17 16 16 14 12 11 10 10 9 10
20 20 20 23 24 23 26 29 26 21 20 20 18 15 11 10 10 9 10 13 16 16 16 21 27 28 25 22 18 13 10 9 10 10 13 16 17 17 19 21 22 22 23 23 22 19 18 17 17 18 19 19 18 16 15 15 13 11 10 10 10 11 11
20 21 20 23 26 25 26 27 23 19 19 20 18 14 10 9 9 9 9 12 16 17 17 20 24 24 23 22 19 13 10 10 12 12 11 13 14 16 19 20 20 20 21 21 20 18 18 17 18 18 19 18 17 16 15 14 12 11 11 11 11 12 11
20 20 21 23 25 25 26 25 20 18 19 19 18 13 8 7 8 11 11 12 15 17 18 20 23 24 24 25 22 16 12 11 12 13 13 13 15 16 18 19 19 19 19 19 19 18 18 18 18 18 18 17 15 14 13 13 12 12 13 12 12 12 11
19 20 21 22 21 22 25 22 17 17 19 20 19 14 10 9 9 11 12 11 13 17 19 22 24 24 24 24 21 15 12 11 12 14 15 15 16 17 19 20 18 16 17 19 19 19 19 19 19 18 17 16 14 13 12 12 13 13 13 13 13 13 12
19 19 21 21 18 19 22 20 16 16 20 22 20 15 13 13 13 13 13 11 13 14 17 22 24 23 21 20 17 14 12 11 12 13 15 16 16 18 20 21 18 16 16 18 20 22 22 22 21 19 16 15 14 13 13 13 13 12 13 14 14 14 13
21 20 21 20 16 17 21 19 16 17 19 21 19 15 14 15 16 15 13 12 12 13 14 18 21 19 17 16 15 14 13 11 11 13 14 16 17 20 22 22 20 18 19 21 23 24 24 23 21 19 18 16 16 16 14 13 13 13 14 15 15 14 12
22 21 20 18 15 15 18 19 18 18 18 18 16 15 14 15 15 15 12 10 11 12 12 14 17 16 14 13 14 13 13 12 12 13 13 12 14 19 24 24 22 22 23 23 24 24 23 21 18 17 18 18 17 16 13 12 14 15 16 15 14 12 11
22 20 17 16 13 13 16 18 18 17 17 16 15 13 12 12 13 13 12 11 10 10 10 10 14 16 14 13 13 14 15 14 12 12 13 11 10 15 21 24 24 24 25 25 24 23 20 18 16 16 17 17 16 15 14 13 14 16 16 15 13 11 10
22 22 17 14 12 13 15 17 18 16 16 15 13 12 11 11 10 9 10 11 9 7 6 7 11 14 15 15 14 14 15 13 10 11 13 11 9 13 18 20 21 21 22 24 23 20 17 16 17 17 16 17 16 16 15 15 14 14 14 14 12 11 10
23 24 20 15 15 16 17 17 17 17 16 12 11 11 10 9 8 7 7 9 8 5 3 5 7 10 13 15 14 13 14 13 13 14 13 10 11 16 19 19 18 18 19 19 17 16 17 18 18 18 18 18 18 17 16 15 15 14 14 13 12 10 9
23 22 21 21 21 20 19 19 18 17 14 9 6 7 6 4 4 3 3 4 3 2 1 4 6 8 11 14 15 15 15 16 16 16 15 14 15 19 21 20 19 19 19 17 14 16 19 20 20 20 19 19 19 18 17 16 15 14 13 12 10 9 8
22 20 21 24 25 22 22 23 20 15 11 6 3 3 2 2 1 1 1 1 1 2 2 4 8 10 12 14 16 17 17 16 16 16 16 16 17 20 22 22 21 21 21 18 18 20 21 21 20 21 21 21 21 20 18 17 16 15 13 11 9 7 6
20 18 19 22 23 22 22 20 15 11 8 5 4 2 1 0 1 0 2 1 1 2 3 5 8 11 14 17 19 19 17 16 17 18 16 17 19 21 22 22 23 24 23 21 21 23 23 22 22 23 22 22 21 21 20 18 16 13 11 9 7 6 6
18 17 18 19 19 19 17 14 10 8 7 4 4 3 1 2 2 2 2 2 2 1 3 5 7 9 14 18 20 19 17 18 21 22 21 21 22 23 22 22 23 24 23 23 24 23 23 24 24 24 24 23 22 21 19 17 14 11 9 7 6 6 7
17 18 18 18 16 15 13 11 7 7 6 2 3 4 3 3 4 4 4 4 3 4 5 5 6 8 13 18 20 21 22 23 24 25 24 24 24 23 23 23 23 22 22 22 22 23 24 25 25 24 25 23 22 20 18 15 12 10 8 7 7 6 6
20 20 18 16 15 14 12 8 5 5 4 1 3 5 5 4 5 6 6 5 6 6 6 7 9 11 14 17 19 23 26 27 27 25 24 24 25 24 23 22 21 20 19 19 19 21 23 24 25 24 22 20 18 17 15 14 12 10 9 9 7 5 4
20 19 17 15 16 14 10 5 3 5 5 3 4 6 8 8 6 6 7 6 6 7 7 9 12 14 16 17 20 23 26 27 27 25 24 25 26 25 24 22 19 18 18 18 19 20 21 21 21 20 17 17 16 13 10 11 12 11 10 8 6 4 4
17 16 16 15 15 13 7 1 3 7 7 6 7 8 9 10 8 7 6 5 5 7 9 12 15 16 16 18 22 24 25 25 26 25 24 25 25 25 24 24 22 19 19 20 21 21 21 19 18 16 14 13 13 13 12 11 11 10 8 6 4 4 5
14 15 15 15 14 11 5 5 6 10 9 8 9 9 9 10 9 7 7 6 6 7 10 13 15 16 16 19 25 27 26 25 24 23 23 25 25 24 24 24 24 23 22 22 21 21 20 19 17 16 14 10 7 9 12 12 11 8 6 5 4 5 7
Wind_Direction
13 11 12 11 360 278 244 241 238 234 232 228 222 216 213 214 215 217 219 222 224 226 226 225 225 225 228 231 234 237 240 242 241 240 237 232 228 227 226 227 228 230 232 234 236 241 246 250 251 251 248 246 249 243 231 229 228 218 202 196 206 219 234
5 3 2 1 360 353 294 247 240 239 237 232 226 220 217 217 218 219 220 223 226 227 227 225 223 224 228 232 235 237 240 242 243 242 241 236 232 229 227 227 228 229 232 234 238 244 248 248 250 252 249 243 241 232 224 226 228 219 209 206 215 227 236
358 358 359 358 355 351 339 280 240 237 239 237 231 225 222 220 219 220 221 225 228 227 225 224 223 224 228 231 234 238 240 241 243 243 243 240 235 233 231 228 228 231 234 237 241 246 246 242 242 245 241 236 235 230 224 228 234 231 224 221 226 234 239
358 356 354 352 352 351 343 322 255 234 236 238 235 231 227 222 220 221 222 227 228 223 221 223 225 224 225 228 233 237 239 241 244 243 243 242 238 235 231 227 227 231 235 238 242 243 238 232 237 239 235 233 235 235 231 230 234 234 231 231 237 242 243
357 354 351 348 347 347 345 335 304 249 235 235 234 233 229 225 223 221 222 225 226 224 224 227 226 223 223 228 233 236 239 241 243 241 239 239 236 232 227 224 224 229 234 236 235 232 229 231 240 240 235 238 239 238 237 235 233 233 232 235 243 247 243
356 355 354 351 346 341 342 337 320 286 248 237 232 230 229 227 224 220 220 222 224 227 229 229 226 224 225 230 234 236 237 239 238 236 236 236 233 229 225 223 223 227 233 232 225 225 232 236 239 237 235 241 240 236 239 241 238 236 236 238 243 245 241
356 357 357 355 349 340 336 333 320 300 265 241 231 228 228 228 225 222 223 223 222 226 229 227 226 225 227 233 237 236 235 235 234 232 232 233 232 230 228 225 225 227 231 230 224 229 239 239 234 234 238 241 238 235 239 244 244 241 241 242 242 244 245
354 358 1 357 353 344 334 330 321 304 273 240 227 224 224 223 223 224 227 225 224 226 228 227 228 227 228 234 237 236 234 233 232 230 230 231 232 232 230 229 229 228 228 228 226 231 239 238 234 236 238 239 240 241 242 246 248 245 242 243 243 246 250
350 356 2 0 358 351 340 332 316 298 273 239 222 219 219 218 219 223 227 228 228 229 228 228 230 229 230 234 236 235 233 232 232 231 231 232 233 233 232 231 230 228 226 226 228 232 232 226 228 237 237 237 242 245 244 243 245 243 241 242 245 246 247
346 353 359 1 3 358 347 336 315 282 262 242 222 217 219 221 221 221 222 225 228 231 230 227 229 230 230 231 233 233 231 231 232 232 231 233 233 232 231 230 230 229 228 227 229 234 230 221 225 236 236 235 241 242 240 238 237 236 235 238 240 240 243
346 352 356 358 2 2 352 337 324 295 251 243 227 220 220 221 222 222 220 221 224 229 230 226 225 228 229 230 231 231 230 229 231 233 232 233 233 232 230 230 231 230 229 233 236 235 231 228 230 239 236 234 237 239 237 238 240 239 237 237 238 239 244
348 351 354 354 357 358 354 341 325 308 263 245 232 225 222 221 223 223 224 228 229 231 232 231 231 231 230 230 230 230 230 230 231 233 234 234 235 235 232 232 234 233 231 239 244 239 230 227 226 233 236 232 233 236 238 242 244 241 238 239 241 244 249
351 351 349 349 352 352 354 349 327 303 274 250 231 221 220 222 225 226 228 233 234 233 234 238 240 237 231 229 231 231 231 231 232 233 234 235 236 236 236 236 240 242 238 238 243 242 233 225 219 220 226 227 227 231 237 240 239 236 237 241 246 249 253
353 353 345 344 347 346 351 351 336 311 279 255 233 218 219 223 225 225 229 235 235 236 239 244 243 237 232 230 230 230 231 231 233 234 235 236 235 235 238 239 242 246 242 239 243 242 236 231 221 215 218 221 223 227 231 232 233 237 241 244 247 250 251
352 354 348 344 342 340 346 348 341 328 292 256 238 224 223 226 226 224 225 228 231 237 245 250 246 238 233 230 227 228 230 231 232 234 233 234 234 235 239 241 242 243 242 240 242 241 235 232 222 214 217 222 226 229 230 230 239 248 249 246 248 251 252
347 350 347 344 339 335 338 342 342 337 312 264 242 233 227 226 228 227 225 224 226 234 242 248 250 244 236 230 226 226 228 229 231 231 230 230 232 236 240 242 243 242 241 239 237 236 232 224 217 215 219 227 231 234 237 242 249 253 250 249 252 254 253
344 346 345 341 333 327 330 336 339 339 327 285 258 254 244 228 224 225 225 227 231 235 239 243 249 251 243 234 229 228 227 226 224 224 228 230 233 239 241 242 243 241 238 233 230 233 231 222 218 219 222 228 232 236 243 248 247 246 247 248 249 249 242
345 344 342 335 324 319 327 335 335 336 333 309 280 277 267 242 235 242 249 250 250 252 254 250 248 252 249 243 238 233 226 222 216 216 231 237 237 238 239 238 239 237 235 233 234 237 233 222 217 219 223 229 233 238 244 245 242 240 240 238 236 232 213
348 345 338 328 318 315 326 333 332 331 333 328 314 305 289 263 263 280 290 286 276 272 267 250 241 246 251 250 246 234 221 223 231 236 250 251 243 239 237 237 238 237 236 238 239 236 226 217 217 221 227 232 235 238 240 239 236 233 226 222 217 201 180
347 345 334 322 316 318 328 335 333 329 331 334 329 322 313 297 287 287 285 279 273 270 262 245 237 241 244 243 242 234 228 243 249 246 250 248 241 239 240 240 240 238 236 236 234 228 220 219 223 225 228 231 231 232 233 230 225 217 209 204 191 175 166
341 340 330 321 317 321 332 336 333 330 334 336 329 322 326 322 304 290 278 263 255 254 253 247 243 238 230 226 232 240 245 245 236 232 238 238 236 239 239 238 237 237 236 234 229 226 223 224 225 223 222 224 224 225 223 216 206 197 190 183 171 164 165
337 332 325 321 319 325 335 335 330 331 336 336 330 322 319 314 290 278 272 258 250 252 250 245 242 237 229 226 229 235 239 233 224 224 231 233 233 233 231 230 231 232 234 234 229 225 222 219 218 218 218 218 217 214 207 197 190 184 177 169 163 163 165
335 329 321 317 321 333 341 338 329 334 341 340 335 328 321 316 303 292 286 269 259 261 255 244 237 234 233 230 228 231 237 233 222 226 236 237 232 230 226 221 219 221 226 229 227 222 217 213 212 212 213 210 204 196 187 182 182 178 169 163 164 165 162
339 331 317 313 323 342 350 345 331 337 351 350 343 337 330 326 326 324 314 293 275 269 258 244 236 234 235 233 231 236 244 242 234 238 250 251 240 232 225 218 215 215 216 218 219 217 212 210 208 203 198 193 185 178 178 179 178 172 166 166 168 166 164
343 338 320 316 332 348 354 354 339 334 351 357 349 344 342 338 339 339 329 312 300 289 267 247 238 235 236 235 234 236 239 240 241 247 256 257 247 234 224 220 224 222 214 213 215 212 206 203 200 191 180 176 174 172 175 178 170 164 165 168 169 169 170
343 344 328 323 340 353 353 355 345 333 343 354 350 346 345 343 344 343 336 326 318 310 290 258 238 234 239 242 240 237 236 238 243 247 248 250 254 245 233 230 232 226 217 213 210 205 198 192 188 181 172 170 171 169 168 170 164 160 164 167 168 172 177
342 346 336 325 338 356 354 351 348 343 345 349 348 344 341 341 346 349 346 339 331 325 314 276 242 233 236 239 237 235 238 241 244 245 238 236 258 259 245 241 242 232 221 213 203 194 186 179 176 178 173 166 165 163 160 164 165 161 162 167 169 173 182
343 348 344 333 340 357 354 347 347 351 354 353 350 348 349 346 345 348 349 344 336 325 312 273 247 240 236 234 232 231 235 236 225 221 224 231 257 256 239 236 241 232 217 208 197 184 177 173 172 175 170 159 157 159 158 161 164 163 163 166 168 174 185
345 345 343 345 352 355 351 344 344 352 359 1 357 357 1 357 348 347 349 348 346 332 296 241 233 239 235 228 225 223 226 223 208 203 208 216 236 238 226 220 227 225 216 209 194 175 172 173 170 170 167 159 156 159 159 160 163 165 165 166 169 176 185
345 342 342 351 356 353 348 347 349 355 1 4 6 9 9 356 354 11 5 351 4 7 265 211 201 213 217 214 212 210 212 211 201 197 201 203 211 219 216 211 216 221 217 207 188 173 172 171 168 170 169 163 159 159 160 162 163 164 167 171 176 181 185
343 346 348 352 353 351 350 352 354 355 357 9 40 36 13 322 299 109 95 55 116 147 192 204 195 195 197 195 195 196 197 195 189 187 192 197 201 204 204 202 204 208 207 196 183 177 171 168 170 174 172 166 162 161 161 163 167 170 173 178 180 180 180
340 350 352 349 349 350 349 350 350 344 347 25 70 67 40 316 267 128 99 97 143 150 169 194 194 188 183 182 184 186 183 178 177 177 181 191 197 198 198 198 199 200 195 186 181 178 171 169 173 175 171 166 164 163 164 168 173 176 177 178 176 168 159
337 345 347 346 348 350 350 351 347 332 334 15 76 101 152 183 186 157 141 163 206 216 202 201 194 180 175 178 181 180 173 170 172 172 174 182 189 190 191 194 197 195 187 179 178 176 171 171 174 173 170 168 167 167 169 171 173 175 175 175 176 165 157
334 337 342 346 347 351 359 1 339 318 327 357 125 147 181 196 188 186 184 181 201 234 238 225 208 183 174 177 179 174 169 170 172 173 174 177 180 183 187 189 188 187 183 180 179 177 174 174 174 173 172 170 168 169 171 171 174 177 177 180 181 171 165
328 330 339 347 346 353 12 15 335 322 342 322 198 195 214 219 202 198 200 194 203 223 232 229 220 200 183 181 181 176 172 173 174 175 176 176 175 178 182 181 178 177 178 180 181 181 180 177 174 174 173 170 168 170 172 173 175 176 177 179 179 175 179
323 327 337 345 348 357 21 43 12 5 9 327 268 239 230 227 211 198 202 209 213 216 221 224 219 206 194 192 191 183 178 177 177 176 178 178 176 175 174 173 172 174 177 177 180 183 184 180 176 173 170 166 165 166 168 170 170 170 172 176 177 182 197
322 327 331 339 351 360 7 357 335 352 350 323 299 275 247 234 220 202 201 210 213 214 222 227 221 209 201 199 194 187 183 183 182 180 179 178 175 172 170 168 169 173 177 178 179 181 181 180 177 171 165 164 164 162 162 164 164 165 172 182 186 195 202
323 324 325 336 354 358 331 287 314 335 339 330 317 301 274 253 240 220 205 200 200 212 225 231 227 219 207 196 191 188 185 186 186 183 178 175 171 169 171 171 169 169 172 176 179 180 179 178 173 164 158 155 156 161 162 161 161 170 188 202 194 181 180